www.pogodaiklimat.ru

Погода и климат >> Архив погоды >> Таиланд >> Lop Buri


ПОГОДА в Lop Buri

  • Прогноз погоды в Lop Buri
  • Монитор погоды в Lop Buri
  • Климат города

АРХИВ ПОГОДЫ в Lop Buri

Время (UTC), дата Ветер
(напр.,м/с)
 
Видим.   Явления Облачность Т
(С)
Тd
(С)
f
(%)
Тe
(С)
Тes
(С)
Комфортность P
(гПа)
Po
(гПа)
Тmin
(С)
Tmax
(С)
R
(мм)
R24
(мм)
S
(см)
12 11.12 штиль 0 8000 м дымка 8/4 600 м
[Sc Ac und Cs]
+28.9 +22.3 68 +38 +38 очень
душно
1011.4 1010.1 +33.4
15 11.12 штиль 0 8000 м дымка 4/0
[Cs]
+27.1 +22.5 76 +36 +36 очень
душно
1013.2 1011.9
18 11.12 штиль 0 7000 м дымка 5/0
[Cs]
+26.0 +22.0 79 +34 +34 очень
душно
1012.5 1011.2
21 11.12 штиль 0 7000 м дымка 5/0
[Cs]
+24.9 +22.1 84 +32 +32 очень
душно
1011.6 1010.2
00 12.12 штиль 0 4000 м дымка 9/4 600 м
[Sc Ac und Cs]
+24.3 +22.5 90 +32 +32 очень
душно
1013.3 1012.0 +24.2
03 12.12 ЮВ 1 7000 м дымка 3/0
[Cs]
+29.0 +24.1 75 +40 +50 очень
душно
1014.5 1013.2
06 12.12 штиль 0 8000 м мгла 3/0
[Cs]
+32.3 +23.2 59 +43 +60 опасность
перегрева
1011.5 1010.2
09 12.12 штиль 0 8000 м мгла 3/0
[Cs]
+32.9 +22.1 53 +42 +46 опасность
перегрева
1009.2 1007.9
12 12.12 штиль 0 7000 м дымка 3/0
[Cs]
+29.5 +23.7 71 +40 +40 очень
душно
1009.9 1008.6 +33.0
15 12.12 штиль 0 7000 м дымка 3/0
[Cs]
+27.5 +23.9 81 +38 +38 очень
душно
1011.5 1010.2
18 12.12 штиль 0 7000 м дымка 3/0
[Cs]
+26.5 +23.6 84 +36 +36 очень
душно
1011.8 1010.5
21 12.12 штиль 0 7000 м дымка 3/0
[Ci fib]
+26.0 +24.6 92 +37 +37 очень
душно
1010.7 1009.4
00 13.12 штиль 0 6000 м дымка 3/0
[Cs]
+25.6 +25.4 99 +37 +37 очень
душно
1012.0 1010.7 +25.5
03 13.12 Ю 1 7000 м дымка 4/3 600 м
[Cu med, cong Ac lent Cs]
+30.0 +24.6 73 +43 +49 опасность
перегрева
1013.2 1011.9
06 13.12 Ю 1 9000 м мгла 4/3 600 м
[Cu med, cong Cs]
+32.8 +24.9 63 +46 +57 опасность
перегрева
1010.3 1009.0
09 13.12 ЮЗ 2 9000 м мгла 3/3 600 м
[Cu med, cong Cs]
+33.9 +23.2 54 +44 +47 опасность
перегрева
1008.1 1006.8
12 13.12 штиль 0 8000 м дымка 3/1 600 м
[Cu med, cong Cs]
+30.2 +24.6 72 +43 +43 опасность
перегрева
1009.2 1007.9 +34.1
15 13.12 штиль 0 8000 м дымка 3/0
[Cs]
+28.3 +24.9 82 +41 +41 опасность
перегрева
1010.6 1009.3
18 13.12 штиль 0 7000 м дымка 3/0
[Cs]
+27.0 +24.4 86 +38 +38 очень
душно
1010.3 1009.0
21 13.12 штиль 0 7000 м дымка 8/3 600 м
[Sc Ac und Cs]
+26.3 +24.6 90 +37 +37 очень
душно
1010.0 1008.7
00 14.12 штиль 0 4000 м дымка 9/3 600 м
[Sc Ac und Cs]
+25.6 +24.7 95 +36 +36 очень
душно
1011.5 1010.1 +25.5
03 14.12 штиль 0 8000 м дымка 8/3 600 м
[Sc Ac und Cs]
+29.6 +25.2 77 +43 +48 опасность
перегрева
1013.3 1012.0
06 14.12 штиль 0 12 км 6/3 600 м
[Cu med, cong Ac lent Cs]
+33.9 +24.7 59 +47 +57 опасность
перегрева
1010.6 1009.4
09 14.12 штиль 0 12 км 5/3 600 м
[Cu med, cong Ac lent Cs]
+34.4 +22.2 49 +43 +46 опасность
перегрева
1008.7 1007.4
12 14.12 штиль 0 8000 м дымка 5/0
[Ac lent Cs]
+29.4 +24.1 73 +41 +41 опасность
перегрева
1009.8 1008.5 +34.4
15 14.12 штиль 0 8000 м дымка 4/0
[Cs]
+26.1 +23.2 84 +35 +35 очень
душно
1011.2 1009.9
18 14.12 штиль 0 7000 м дымка 3/0
[Cs]
+25.5 +23.3 88 +34 +34 очень
душно
1011.3 1010.0
21 14.12 штиль 0 6000 м дымка 8/0
[Cs]
+25.5 +23.3 88 +34 +34 очень
душно
1010.8 1009.5
00 15.12 штиль 0 4000 м дымка 10/4 600 м
[Sc Ac und Cs]
+25.3 +23.4 89 +34 +34 очень
душно
1012.1 1010.8 +24.7
03 15.12 штиль 0 7000 м дымка 8/3 600 м
[Cu med, cong As trans Cs]
+29.1 +25.0 79 +42 +47 опасность
перегрева
1013.7 1012.4
06 15.12 штиль 0 7000 м мгла 8/3 600 м
[Cu med, cong As trans Cs]
+32.0 +24.1 63 +44 +52 опасность
перегрева
1011.1 1009.8
09 15.12 штиль 0 7000 м мгла 8/3 600 м
[Cu med, cong Cs]
+33.0 +22.9 55 +43 +46 опасность
перегрева
1009.0 1007.7
12 15.12 штиль 0 7000 м дымка 6/0
[Cs]
+29.5 +23.9 72 +41 +41 опасность
перегрева
1010.9 1009.6 +33.3
15 15.12 штиль 0 7000 м дымка 6/0
[Cs]
+27.7 +23.0 76 +37 +37 очень
душно
1012.7 1011.4
18 15.12 штиль 0 7000 м дымка 3/0
[Ci fib]
+26.6 +21.2 72 +34 +34 очень
душно
1012.7 1011.3
21 15.12 штиль 0 7000 м дымка 3/0
[Ci fib]
+26.5 +19.9 67 +32 +32 очень
душно
1012.2 1010.8
00 16.12 В 3 7000 м дымка 8/6 600 м
[Cu hum As trans Ci fib]
+25.5 +19.3 69 +31 +31 очень
душно
1013.7 1012.4 +25.2
03 16.12 С 4 9000 м мгла 3/0
[Ci fib]
+29.0 +18.8 54 +34 +40 очень
душно
1015.4 1014.1
06 16.12 штиль 0 10 км 3/0
[Ci fib]
+32.5 +18.5 43 +37 +54 опасность
солнечного
удара
1012.7 1011.4
09 16.12 СВ 6 10 км 5/0
[As trans Ci fib]
+32.5 +16.5 38 +35 +36 душно 1011.5 1010.2
12 16.12 штиль 0 9000 м мгла 3/0
[Ci fib]
+29.2 +17.9 51 +34 +34 очень
душно
1013.3 1012.0 +33.3
15 16.12 штиль 0 8000 м мгла 3/0
[Ci fib]
+28.6 +17.4 51 +33 +33 очень
душно
1015.2 1013.9
18 16.12 СВ 3 8000 м мгла 3/0
[Ci fib]
+26.8 +16.5 53 +30 +30 душно 1015.4 1014.0
21 16.12 С 6 8000 м мгла 3/0
[Ci fib]
+24.4 +13.2 50 +27 +27 жарко 1014.8 1013.5
00 17.12 СВ 3 8000 м мгла 4/3 600 м
[Cu hum Ci fib]
+22.5 +12.9 55 +25 +25 комфорт 1016.8 1015.5 +22.4
03 17.12 В 4 10 км 3/0
[Ac trans Ci fib]
+25.5 +13.4 47 +28 +33 жарко 1019.1 1017.8
06 17.12 СВ 2 10 км 4/0
[Cs]
+28.6 +14.3 42 +31 +43 жарко 1016.9 1015.6
09 17.12 СВ 2 10 км 3/0
[Cs]
+29.4 +13.7 38 +31 +34 жарко 1014.4 1013.1
12 17.12 штиль 0 8000 м мгла 3/0
[Cs]
+26.0 +13.8 47 +28 +28 жарко 1016.3 1015.0 +29.7
15 17.12 штиль 0 8000 м мгла 3/0
[Ci fib]
+24.0 +13.3 51 +26 +26 жарко 1018.3 1017.0
18 17.12 СВ 1 7000 м мгла 3/0
[Ci fib]
+23.4 +12.4 50 +26 +26 жарко 1018.4 1017.1
21 17.12 В 4 7000 м мгла 3/0
[Ci fib]
+20.9 +10.9 53 +23 +23 комфорт 1017.1 1015.7
00 18.12 СВ 3 7000 м мгла 5/0
[Ac lent Ci fib]
+19.0 +8.8 52 +20 +20 1018.5 1017.1 +18.9
03 18.12 СВ 5 9000 м мгла 4/1 600 м
[Cu hum Ac lent Ci fib]
+22.3 +8.0 40 +23 +27 комфорт 1020.2 1018.8
06 18.12 В 4 9000 м мгла 3/1 600 м
[Cu hum Ac lent Ci]
+25.7 +9.0 35 +26 +33 жарко 1018.0 1016.7

 

Местоположение метеостанции Lop Buri (Таиланд): широта 14.80 долгота 100.61 высота над уровнем моря 11 м.

В архиве по умолчанию представлена погода в Lop Buri за последнюю неделю. Архивные данные за месяц целиком и за предыдущие месяцы, начиная с января 2011 года, Вы можете получить, выбрав интересующий диапазон дат из раскрывающегося списка и нажав кнопку "Ввод!".

Внимание! Время в таблицах - всемирное. Для получения местного времени необходимо прибавить поправку, которая в Lop Buri равна 7 ч.

Смотрите также архив погоды в соседних городах и на ближайших метеорологических станциях:

Погода в Ayutthaya (Таиланд) (33 км)
Погода в Laemchabang (Таиланд) (43 км)
Погода в Saraburi (Таиланд) (46 км)
Погода в Chainat Agromet (Таиланд) (60 км)
Погода в Takfa Agromet (Таиланд) (62 км)
Погода в Suphan Buri (Таиланд) (63 км)
Погода в Pathumthani (Таиланд) (78 км)
Погода в Pakchong Agromet (Таиланд) (79 км)
Погода в Bua Chum (Таиланд) (81 км)
Погода в Uthai Thani (Таиланд) (89 км)

Пояснения к столбцам:

Ветер - указаны скорость ветра в м/с - средняя за 10 мин, порывы в срок и между сроками (в фигурных скобках) и направление, откуда дует ветер: С - северный, СВ - северо-восточный, В - восточный, ЮВ - юго-восточный, Ю - южный, ЮЗ - юго-западный, З - западный, СЗ - северо-западный.
Видимость - горизонтальная дальность видимости в метрах или километрах. При видимости от 1 до 10 км при отсутствии осадков обычно наблюдается дымка, при ухудшении видимости до 1 км и менее - туман. В сухую погоду видимость может ухудшаться дымом, пылью или мглою.
Явления - указаны атмосферные явления, наблюдавшиеся в срок или в последний час перед сроком; фигурными скобками обозначены явления, наблюдавшиеся между сроками (за 1-3 часа до срока); квадратными скобками обозначены град или гололедные отложения с указанием их диаметра в мм.
Облачность - указаны через наклонную черту общая и нижняя облачность в баллах и высота нижней границы облаков в метрах; квадратными скобками обозначены формы облаков: Ci - перистые, Cs - перисто-слоистые, Cc - перисто-кучевые, Ac - высококучевые, As - высокослоистые, Sc - слоисто-кучевые, Ns - слоисто-дождевые, Cu - кучевые, Cb - кучево-дождевые. Подробнее классификацию облаков см. в Атласе облаков (PDF).
T - Температура воздуха - температура, измеренная на высоте 2 м над землей.
Td - Температура точки росы - температура, при понижении до которой содержащийся в воздухе водяной пар достигнет насыщения.
f - Относительная влажность воздуха - влажноcть воздуха, измеренная на высоте 2 м над землей.
Te - Эффективная температура - температура, которую ощущает одетый по сезону человек в тени. Характеристика душности погоды. При расчете учитывается влияние влажности воздуха и скорости ветра на теплоощущения человека.
Tes - Эффективная температура на солнце - температура, которую ощущает человек, с поправкой на солнечный нагрев. Характеристика знойности погоды. Зависит от высоты солнца над горизонтом, облачности и скорости ветра. Ночью, в пасмурную погоду, а также при ветре 12 м/с и более поправка равна нулю.
P - Атмосферное давление - приведенное к уровню моря атмосферное давление.
Po - Атмосферное давление - измеренное на уровне метеостанции атмосферное давление.
Tmin - Минимальная температура - минимум температуры воздуха на высоте 2 м над землей.
Tmax - Максимальная температура - максимум температуры воздуха на высоте 2 м над землей.
R - Количество осадков - Количество выпавших осадков за период времени, мм. При наведении курсора мыши на число - период времени, за который выпало указанное количество осадков.
R24 - Количество осадков - Количество выпавших осадков за 24 часа, мм.
S - Снежный покров - Высота снежного покрова, см. При наведении курсора мыши на число - состояние снежного покрова и степень покрытия местности в баллах.